Year,Month,Day,Hour,Minute,Value (Times are PST for temperature in C)
2018,07,03,00,00,10.90
2018,07,03,00,01,10.90
2018,07,03,00,02,10.90
2018,07,03,00,03,10.90
2018,07,03,00,04,10.90
2018,07,03,00,05,10.80
2018,07,03,00,06,10.90
2018,07,03,00,07,10.80
2018,07,03,00,08,10.80
2018,07,03,00,09,10.80
2018,07,03,00,10,10.80
2018,07,03,00,11,10.80
2018,07,03,00,12,10.80
2018,07,03,00,13,10.80
2018,07,03,00,14,10.80
2018,07,03,00,15,10.80
2018,07,03,00,16,10.80
2018,07,03,00,17,10.70
2018,07,03,00,18,10.70
2018,07,03,00,19,10.70
2018,07,03,00,20,10.70
2018,07,03,00,21,10.70
2018,07,03,00,22,10.70
2018,07,03,00,23,10.70
2018,07,03,00,24,10.70
2018,07,03,00,25,10.70
2018,07,03,00,26,10.70
2018,07,03,00,27,10.70
2018,07,03,00,28,10.70
2018,07,03,00,29,10.80
2018,07,03,00,30,10.80
2018,07,03,00,31,10.80
2018,07,03,00,32,10.80
2018,07,03,00,33,10.80
2018,07,03,00,34,10.80
2018,07,03,00,35,10.70
2018,07,03,00,36,10.70
2018,07,03,00,37,10.70
2018,07,03,00,38,10.70
2018,07,03,00,39,10.70
2018,07,03,00,40,10.70
2018,07,03,00,41,10.70
2018,07,03,00,42,10.70
2018,07,03,00,43,10.70
2018,07,03,00,44,10.70
2018,07,03,00,45,10.70
2018,07,03,00,46,10.70
2018,07,03,00,47,10.70
2018,07,03,00,48,10.60
2018,07,03,00,49,10.60
2018,07,03,00,50,10.60
2018,07,03,00,51,10.60
2018,07,03,00,52,10.60
2018,07,03,00,53,10.60
2018,07,03,00,54,10.60
2018,07,03,00,55,10.60
2018,07,03,00,56,10.60
2018,07,03,00,57,10.60
2018,07,03,00,58,10.60
2018,07,03,00,59,10.50
2018,07,03,01,00,10.50
2018,07,03,01,01,10.50
2018,07,03,01,02,10.50
2018,07,03,01,03,10.50
2018,07,03,01,04,10.40
2018,07,03,01,05,10.40
2018,07,03,01,06,10.40
2018,07,03,01,07,10.40
2018,07,03,01,08,10.40
2018,07,03,01,09,10.40
2018,07,03,01,10,10.40
2018,07,03,01,11,10.40
2018,07,03,01,12,10.40
2018,07,03,01,13,10.30
2018,07,03,01,14,10.30
2018,07,03,01,15,10.30
2018,07,03,01,16,10.30
2018,07,03,01,17,10.30
2018,07,03,01,18,10.30
2018,07,03,01,19,10.30
2018,07,03,01,20,10.20
2018,07,03,01,21,10.20
2018,07,03,01,22,10.20
2018,07,03,01,23,10.20
2018,07,03,01,24,10.20
2018,07,03,01,25,10.20
2018,07,03,01,26,10.20
2018,07,03,01,27,10.20
2018,07,03,01,28,10.10
2018,07,03,01,29,10.20
2018,07,03,01,30,10.20
2018,07,03,01,31,10.20
2018,07,03,01,32,10.20
2018,07,03,01,33,10.20
2018,07,03,01,34,10.20
2018,07,03,01,35,10.20
2018,07,03,01,36,10.20
2018,07,03,01,37,10.20
2018,07,03,01,38,10.20
2018,07,03,01,39,10.20
2018,07,03,01,40,10.20
2018,07,03,01,41,10.20
2018,07,03,01,42,10.20
2018,07,03,01,43,10.20
2018,07,03,01,44,10.20
2018,07,03,01,45,10.20
2018,07,03,01,46,10.20
2018,07,03,01,47,10.20
2018,07,03,01,48,10.20
2018,07,03,01,49,10.20
2018,07,03,01,50,10.20
2018,07,03,01,51,10.20
2018,07,03,01,52,10.30
2018,07,03,01,53,10.30
2018,07,03,01,54,10.30
2018,07,03,01,55,10.30
2018,07,03,01,56,10.30
2018,07,03,01,57,10.30
2018,07,03,01,58,10.30
2018,07,03,01,59,10.30
2018,07,03,02,00,10.30
2018,07,03,02,01,10.30
2018,07,03,02,02,10.30
2018,07,03,02,03,10.30
2018,07,03,02,04,10.20
2018,07,03,02,05,10.20
2018,07,03,02,06,10.20
2018,07,03,02,07,10.20
2018,07,03,02,08,10.20
2018,07,03,02,09,10.20
2018,07,03,02,10,10.20
2018,07,03,02,11,10.20
2018,07,03,02,12,10.20
2018,07,03,02,13,10.20
2018,07,03,02,14,10.20
2018,07,03,02,15,10.20
2018,07,03,02,16,10.20
2018,07,03,02,17,10.20
2018,07,03,02,18,10.20
2018,07,03,02,19,10.20
2018,07,03,02,20,10.20
2018,07,03,02,21,10.20
2018,07,03,02,22,10.10
2018,07,03,02,23,10.10
2018,07,03,02,24,10.10
2018,07,03,02,25,10.10
2018,07,03,02,26,10.10
2018,07,03,02,27,10.10
2018,07,03,02,28,10.00
2018,07,03,02,29,10.00
2018,07,03,02,30,10.00
2018,07,03,02,31,10.00
2018,07,03,02,32,10.00
2018,07,03,02,33,10.00
2018,07,03,02,34,10.00
2018,07,03,02,35,10.00
2018,07,03,02,36,10.00
2018,07,03,02,37,10.00
2018,07,03,02,38,10.00
2018,07,03,02,39,10.00
2018,07,03,02,40,10.00
2018,07,03,02,41,10.00
2018,07,03,02,42,9.90
2018,07,03,02,43,9.90
2018,07,03,02,44,9.90
2018,07,03,02,45,9.90
2018,07,03,02,46,9.90
2018,07,03,02,47,9.90
2018,07,03,02,48,10.00
2018,07,03,02,49,10.00
2018,07,03,02,50,10.10
2018,07,03,02,51,10.10
2018,07,03,02,52,10.10
2018,07,03,02,53,10.20
2018,07,03,02,54,10.20
2018,07,03,02,55,10.20
2018,07,03,02,56,10.20
2018,07,03,02,57,10.20
2018,07,03,02,58,10.20
2018,07,03,02,59,10.20
2018,07,03,03,00,10.20
2018,07,03,03,01,10.20
2018,07,03,03,02,10.20
2018,07,03,03,03,10.30
2018,07,03,03,04,10.30
2018,07,03,03,05,10.30
2018,07,03,03,06,10.30
2018,07,03,03,07,10.30
2018,07,03,03,08,10.20
2018,07,03,03,09,10.20
2018,07,03,03,10,10.20
2018,07,03,03,11,10.20
2018,07,03,03,12,10.20
2018,07,03,03,13,10.20
2018,07,03,03,14,10.10
2018,07,03,03,15,10.10
2018,07,03,03,16,10.10
2018,07,03,03,17,10.10
2018,07,03,03,18,10.10
2018,07,03,03,19,10.10
2018,07,03,03,20,10.10
2018,07,03,03,21,10.10
2018,07,03,03,22,10.10
2018,07,03,03,23,10.10
2018,07,03,03,24,10.10
2018,07,03,03,25,10.10
2018,07,03,03,26,10.10
2018,07,03,03,27,10.10
2018,07,03,03,28,10.10
2018,07,03,03,29,10.10
2018,07,03,03,30,10.10
2018,07,03,03,31,10.10
2018,07,03,03,32,10.10
2018,07,03,03,33,10.10
2018,07,03,03,34,10.10
2018,07,03,03,35,10.10
2018,07,03,03,36,10.10
2018,07,03,03,37,10.10
2018,07,03,03,38,10.10
2018,07,03,03,39,10.10
2018,07,03,03,40,10.10
2018,07,03,03,41,10.10
2018,07,03,03,42,10.10
2018,07,03,03,43,10.10
2018,07,03,03,44,10.10
2018,07,03,03,45,10.20
2018,07,03,03,46,10.20
2018,07,03,03,47,10.20
2018,07,03,03,48,10.20
2018,07,03,03,49,10.20
2018,07,03,03,50,10.20
2018,07,03,03,51,10.20
2018,07,03,03,52,10.20
2018,07,03,03,53,10.20
2018,07,03,03,54,10.20
2018,07,03,03,55,10.20
2018,07,03,03,56,10.20
2018,07,03,03,57,10.20
2018,07,03,03,58,10.20
2018,07,03,03,59,10.20
2018,07,03,04,00,10.20
2018,07,03,04,01,10.20
2018,07,03,04,02,10.20
2018,07,03,04,03,10.20
2018,07,03,04,04,10.20
2018,07,03,04,05,10.20
2018,07,03,04,06,10.10
2018,07,03,04,07,10.10
2018,07,03,04,08,10.10
2018,07,03,04,09,10.10
2018,07,03,04,10,10.10
2018,07,03,04,11,10.10
2018,07,03,04,12,10.10
2018,07,03,04,13,10.10
2018,07,03,04,14,10.10
2018,07,03,04,15,10.10
2018,07,03,04,16,10.10
2018,07,03,04,17,10.10
2018,07,03,04,18,10.10
2018,07,03,04,19,10.10
2018,07,03,04,20,10.10
2018,07,03,04,21,10.10
2018,07,03,04,22,10.10
2018,07,03,04,23,10.10
2018,07,03,04,24,10.20
2018,07,03,04,25,10.20
2018,07,03,04,26,10.30
2018,07,03,04,27,10.40
2018,07,03,04,28,10.50
2018,07,03,04,29,10.60
2018,07,03,04,30,10.80
2018,07,03,04,31,10.90
2018,07,03,04,32,11.00
2018,07,03,04,33,11.00
2018,07,03,04,34,11.10
2018,07,03,04,35,11.20
2018,07,03,04,36,11.20
2018,07,03,04,37,11.30
2018,07,03,04,38,11.40
2018,07,03,04,39,11.50
2018,07,03,04,40,11.50
2018,07,03,04,41,11.60
2018,07,03,04,42,11.60
2018,07,03,04,43,11.60
2018,07,03,04,44,11.70
2018,07,03,04,45,11.70
2018,07,03,04,46,11.70
2018,07,03,04,47,11.80
2018,07,03,04,48,11.90
2018,07,03,04,49,12.00
2018,07,03,04,50,12.10
2018,07,03,04,51,12.20
2018,07,03,04,52,12.20
2018,07,03,04,53,12.30
2018,07,03,04,54,12.30
2018,07,03,04,55,12.30
2018,07,03,04,56,12.30
2018,07,03,04,57,12.30
2018,07,03,04,58,12.30
2018,07,03,04,59,12.30
2018,07,03,05,00,12.30
2018,07,03,05,01,12.30
2018,07,03,05,02,12.30
2018,07,03,05,03,12.30
2018,07,03,05,04,12.30
2018,07,03,05,05,12.20
2018,07,03,05,06,12.20
2018,07,03,05,07,12.20
2018,07,03,05,08,12.20
2018,07,03,05,09,12.20
2018,07,03,05,10,12.20
2018,07,03,05,11,12.20
2018,07,03,05,12,12.20
2018,07,03,05,13,12.10
2018,07,03,05,14,12.10
2018,07,03,05,15,12.10
2018,07,03,05,16,12.10
2018,07,03,05,17,12.10
2018,07,03,05,18,12.10
2018,07,03,05,19,12.10
2018,07,03,05,20,12.10
2018,07,03,05,21,12.10
2018,07,03,05,22,12.10
2018,07,03,05,23,12.10
2018,07,03,05,24,12.10
2018,07,03,05,25,12.10
2018,07,03,05,26,12.10
2018,07,03,05,27,12.10
2018,07,03,05,28,12.10
2018,07,03,05,29,12.00
2018,07,03,05,30,12.00
2018,07,03,05,31,11.90
2018,07,03,05,32,11.90
2018,07,03,05,33,11.90
2018,07,03,05,34,11.80
2018,07,03,05,35,11.80
2018,07,03,05,36,11.70
2018,07,03,05,37,11.70
2018,07,03,05,38,11.70
2018,07,03,05,39,11.60
2018,07,03,05,40,11.60
2018,07,03,05,41,11.50
2018,07,03,05,42,11.50
2018,07,03,05,43,11.40
2018,07,03,05,44,11.40
2018,07,03,05,45,11.30
2018,07,03,05,46,11.30
2018,07,03,05,47,11.20
2018,07,03,05,48,11.20
2018,07,03,05,49,11.20
2018,07,03,05,50,11.20
2018,07,03,05,51,11.10
2018,07,03,05,52,11.10
2018,07,03,05,53,11.10
2018,07,03,05,54,11.10
2018,07,03,05,55,11.10
2018,07,03,05,56,11.00
2018,07,03,05,57,11.00
2018,07,03,05,58,10.90
2018,07,03,05,59,11.00
2018,07,03,06,00,10.90
2018,07,03,06,01,10.90
2018,07,03,06,02,10.90
2018,07,03,06,03,11.00
2018,07,03,06,04,11.00
2018,07,03,06,05,11.00
2018,07,03,06,06,11.00
2018,07,03,06,07,11.00
2018,07,03,06,08,11.00
2018,07,03,06,09,11.00
2018,07,03,06,10,11.00
2018,07,03,06,11,11.10
2018,07,03,06,12,11.10
2018,07,03,06,13,11.20
2018,07,03,06,14,11.20
2018,07,03,06,15,11.30
2018,07,03,06,16,11.40
2018,07,03,06,17,11.50
2018,07,03,06,18,11.50
2018,07,03,06,19,11.50
2018,07,03,06,20,11.60
2018,07,03,06,21,11.60
2018,07,03,06,22,11.60
2018,07,03,06,23,11.60
2018,07,03,06,24,11.60
2018,07,03,06,25,11.60
2018,07,03,06,26,11.70
2018,07,03,06,27,11.70
2018,07,03,06,28,11.80
2018,07,03,06,29,11.80
2018,07,03,06,30,11.90
2018,07,03,06,31,11.90
2018,07,03,06,32,11.90
2018,07,03,06,33,12.00
2018,07,03,06,34,12.00
2018,07,03,06,35,12.00
2018,07,03,06,36,12.00
2018,07,03,06,37,12.10
2018,07,03,06,38,12.10
2018,07,03,06,39,12.10
2018,07,03,06,40,12.10
2018,07,03,06,41,12.10
2018,07,03,06,42,12.10
2018,07,03,06,43,12.10
2018,07,03,06,44,12.10
2018,07,03,06,45,12.10
2018,07,03,06,46,12.10
2018,07,03,06,47,12.20
2018,07,03,06,48,12.20
2018,07,03,06,49,12.20
2018,07,03,06,50,12.30
2018,07,03,06,51,12.30
2018,07,03,06,52,12.30
2018,07,03,06,53,12.30
2018,07,03,06,54,12.30
2018,07,03,06,55,12.30
2018,07,03,06,56,12.30
2018,07,03,06,57,12.30
2018,07,03,06,58,12.30
2018,07,03,06,59,12.30
2018,07,03,07,00,12.30
2018,07,03,07,01,12.30
2018,07,03,07,02,12.30
2018,07,03,07,03,12.30
2018,07,03,07,04,12.30
2018,07,03,07,05,12.30
2018,07,03,07,06,12.30
2018,07,03,07,07,12.40
2018,07,03,07,08,12.40
2018,07,03,07,09,12.40
2018,07,03,07,10,12.40
2018,07,03,07,11,12.50
2018,07,03,07,12,12.60
2018,07,03,07,13,12.60
2018,07,03,07,14,12.70
2018,07,03,07,15,12.80
2018,07,03,07,16,12.90
2018,07,03,07,17,12.90
2018,07,03,07,18,12.90
2018,07,03,07,19,12.90
2018,07,03,07,20,13.00
2018,07,03,07,21,13.10
2018,07,03,07,22,13.20
2018,07,03,07,23,13.20
2018,07,03,07,24,13.30
2018,07,03,07,25,13.30
2018,07,03,07,26,13.30
2018,07,03,07,27,13.40
2018,07,03,07,28,13.50
2018,07,03,07,29,13.60
2018,07,03,07,30,13.60
2018,07,03,07,31,13.60
2018,07,03,07,32,13.70
2018,07,03,07,33,13.70
2018,07,03,07,34,13.70
2018,07,03,07,35,13.80
2018,07,03,07,36,13.80
2018,07,03,07,37,13.80
2018,07,03,07,38,13.80
2018,07,03,07,39,13.90
2018,07,03,07,40,13.90
2018,07,03,07,41,14.00
2018,07,03,07,42,14.10
2018,07,03,07,43,14.10
2018,07,03,07,44,14.10
2018,07,03,07,45,14.10
2018,07,03,07,46,14.20
2018,07,03,07,47,14.20
2018,07,03,07,48,14.20
2018,07,03,07,49,14.20
2018,07,03,07,50,14.20
2018,07,03,07,51,14.30
2018,07,03,07,52,14.30
2018,07,03,07,53,14.30
2018,07,03,07,54,14.30
2018,07,03,07,55,14.30
2018,07,03,07,56,14.40
2018,07,03,07,57,14.40
2018,07,03,07,58,14.40
2018,07,03,07,59,14.50
2018,07,03,08,00,14.50
2018,07,03,08,01,14.60
2018,07,03,08,02,14.60
2018,07,03,08,03,14.60
2018,07,03,08,04,14.50
2018,07,03,08,05,14.40
2018,07,03,08,06,14.40
2018,07,03,08,07,14.30
2018,07,03,08,08,14.40
2018,07,03,08,09,14.40
2018,07,03,08,10,14.40
2018,07,03,08,11,14.40
2018,07,03,08,12,14.50
2018,07,03,08,13,14.50
2018,07,03,08,14,14.60
2018,07,03,08,15,14.70
2018,07,03,08,16,14.80
2018,07,03,08,17,14.80
2018,07,03,08,18,14.90
2018,07,03,08,19,15.00
2018,07,03,08,20,15.00
2018,07,03,08,21,15.10
2018,07,03,08,22,15.30
2018,07,03,08,23,15.30
2018,07,03,08,24,15.30
2018,07,03,08,25,15.30
2018,07,03,08,26,15.30
2018,07,03,08,27,15.40
2018,07,03,08,28,15.40
2018,07,03,08,29,15.40
2018,07,03,08,30,15.40
2018,07,03,08,31,15.40
2018,07,03,08,32,15.40
2018,07,03,08,33,15.40
2018,07,03,08,34,15.40
2018,07,03,08,35,15.30
2018,07,03,08,36,15.20
2018,07,03,08,37,15.10
2018,07,03,08,38,15.00
2018,07,03,08,39,15.00
2018,07,03,08,40,15.00
2018,07,03,08,41,15.00
2018,07,03,08,42,15.00
2018,07,03,08,43,15.00
2018,07,03,08,44,15.00
2018,07,03,08,45,15.00
2018,07,03,08,46,15.00
2018,07,03,08,47,15.00
2018,07,03,08,48,14.90
2018,07,03,08,49,14.90
2018,07,03,08,50,14.90
2018,07,03,08,51,14.90
2018,07,03,08,52,14.90
2018,07,03,08,53,15.00
2018,07,03,08,54,15.00
2018,07,03,08,55,15.00
2018,07,03,08,56,15.20
2018,07,03,08,57,15.30
2018,07,03,08,58,15.50
2018,07,03,08,59,15.60
2018,07,03,09,00,15.80
2018,07,03,09,01,15.90
2018,07,03,09,02,16.00
2018,07,03,09,03,16.10
2018,07,03,09,04,16.20
2018,07,03,09,05,16.30
2018,07,03,09,06,16.40
2018,07,03,09,07,16.50
2018,07,03,09,08,16.60
2018,07,03,09,09,16.70
2018,07,03,09,10,16.80
2018,07,03,09,11,16.80
2018,07,03,09,12,16.90
2018,07,03,09,13,16.90
2018,07,03,09,14,16.90
2018,07,03,09,15,17.10
2018,07,03,09,16,17.20
2018,07,03,09,17,17.30
2018,07,03,09,18,17.30
2018,07,03,09,19,17.30
2018,07,03,09,20,17.20
2018,07,03,09,21,17.20
2018,07,03,09,22,17.20
2018,07,03,09,23,17.30
2018,07,03,09,24,17.30
2018,07,03,09,25,17.40
2018,07,03,09,26,17.40
2018,07,03,09,27,17.50
2018,07,03,09,28,17.60
2018,07,03,09,29,17.70
2018,07,03,09,30,17.70
2018,07,03,09,31,17.80
2018,07,03,09,32,17.90
2018,07,03,09,33,17.90
2018,07,03,09,34,18.00
2018,07,03,09,35,18.00
2018,07,03,09,36,17.90
2018,07,03,09,37,17.90
2018,07,03,09,38,18.00
2018,07,03,09,39,18.10
2018,07,03,09,40,18.20
2018,07,03,09,41,18.20
2018,07,03,09,42,18.30
2018,07,03,09,43,18.30
2018,07,03,09,44,18.40
2018,07,03,09,45,18.50
2018,07,03,09,46,18.60
2018,07,03,09,47,18.60
2018,07,03,09,48,18.70
2018,07,03,09,49,18.70
2018,07,03,09,50,18.60
2018,07,03,09,51,18.50
2018,07,03,09,52,18.40
2018,07,03,09,53,18.40
2018,07,03,09,54,18.50
2018,07,03,09,55,18.40
2018,07,03,09,56,18.30
2018,07,03,09,57,18.20
2018,07,03,09,58,18.20
2018,07,03,09,59,18.30
2018,07,03,10,00,18.30
2018,07,03,10,01,18.30
2018,07,03,10,02,18.30
2018,07,03,10,03,18.20
2018,07,03,10,04,18.10
2018,07,03,10,05,18.00
2018,07,03,10,06,17.80
2018,07,03,10,07,17.70
2018,07,03,10,08,17.60
2018,07,03,10,09,17.60
2018,07,03,10,10,17.50
2018,07,03,10,11,17.40
2018,07,03,10,12,17.50
2018,07,03,10,13,17.50
2018,07,03,10,14,17.50
2018,07,03,10,15,17.50
2018,07,03,10,16,17.40
2018,07,03,10,17,17.40
2018,07,03,10,18,17.40
2018,07,03,10,19,17.40
2018,07,03,10,20,17.40
2018,07,03,10,21,17.40
2018,07,03,10,22,17.40
2018,07,03,10,23,17.40
2018,07,03,10,24,17.40
2018,07,03,10,25,17.40
2018,07,03,10,26,17.50
2018,07,03,10,27,17.50
2018,07,03,10,28,17.60
2018,07,03,10,29,17.60
2018,07,03,10,30,17.60
2018,07,03,10,31,17.60
2018,07,03,10,32,17.60
2018,07,03,10,33,17.60
2018,07,03,10,34,17.60
2018,07,03,10,35,17.60
2018,07,03,10,36,17.60
2018,07,03,10,37,17.60
2018,07,03,10,38,17.70
2018,07,03,10,39,17.80
2018,07,03,10,40,17.90
2018,07,03,10,41,18.00
2018,07,03,10,42,18.10
2018,07,03,10,43,18.10
2018,07,03,10,44,18.10
2018,07,03,10,45,18.10
2018,07,03,10,46,18.20
2018,07,03,10,47,18.20
2018,07,03,10,48,18.20
2018,07,03,10,49,18.10
2018,07,03,10,50,18.00
2018,07,03,10,51,18.00
2018,07,03,10,52,18.00
2018,07,03,10,53,17.90
2018,07,03,10,54,17.90
2018,07,03,10,55,17.70
2018,07,03,10,56,17.60
2018,07,03,10,57,17.50
2018,07,03,10,58,17.40
2018,07,03,10,59,17.40
2018,07,03,11,00,17.40
2018,07,03,11,01,17.40
2018,07,03,11,02,17.40
2018,07,03,11,03,17.40
2018,07,03,11,04,17.50
2018,07,03,11,05,17.60
2018,07,03,11,06,17.60
2018,07,03,11,07,17.40
2018,07,03,11,08,17.30
2018,07,03,11,09,17.20
2018,07,03,11,10,17.10
2018,07,03,11,11,17.10
2018,07,03,11,12,17.00
2018,07,03,11,13,16.90
2018,07,03,11,14,17.00
2018,07,03,11,15,17.10
2018,07,03,11,16,17.10
2018,07,03,11,17,17.10
2018,07,03,11,18,17.10
2018,07,03,11,19,17.10
2018,07,03,11,20,17.00
2018,07,03,11,21,17.10
2018,07,03,11,22,17.10
2018,07,03,11,23,17.10
2018,07,03,11,24,17.20
2018,07,03,11,25,17.20
2018,07,03,11,26,17.30
2018,07,03,11,27,17.40
2018,07,03,11,28,17.50
2018,07,03,11,29,17.70
2018,07,03,11,30,17.80
2018,07,03,11,31,17.90
2018,07,03,11,32,17.90
2018,07,03,11,33,17.90
2018,07,03,11,34,18.00
2018,07,03,11,35,18.10
2018,07,03,11,36,18.00
2018,07,03,11,37,17.90
2018,07,03,11,38,17.90
2018,07,03,11,39,17.90
2018,07,03,11,40,17.90
2018,07,03,11,41,17.90
2018,07,03,11,42,18.00
2018,07,03,11,43,18.00
2018,07,03,11,44,18.10
2018,07,03,11,45,18.10
2018,07,03,11,46,18.10
2018,07,03,11,47,18.10
2018,07,03,11,48,18.20
2018,07,03,11,49,18.30
2018,07,03,11,50,18.40
2018,07,03,11,51,18.50
2018,07,03,11,52,18.60
2018,07,03,11,53,18.70
2018,07,03,11,54,18.60
2018,07,03,11,55,18.60
2018,07,03,11,56,18.50
2018,07,03,11,57,18.60
2018,07,03,11,58,18.60
2018,07,03,11,59,18.60
2018,07,03,12,00,18.60
2018,07,03,12,01,18.60
2018,07,03,12,02,18.60
2018,07,03,12,03,18.70
2018,07,03,12,04,18.80
2018,07,03,12,05,18.90
2018,07,03,12,06,19.00
2018,07,03,12,07,19.10
2018,07,03,12,08,19.10
2018,07,03,12,09,19.20
2018,07,03,12,10,19.20
2018,07,03,12,11,19.30
2018,07,03,12,12,19.40
2018,07,03,12,13,19.40
2018,07,03,12,14,19.40
2018,07,03,12,15,19.20
2018,07,03,12,16,19.10
2018,07,03,12,17,19.10
2018,07,03,12,18,19.10
2018,07,03,12,19,19.00
2018,07,03,12,20,18.90
2018,07,03,12,21,18.90
2018,07,03,12,22,18.70
2018,07,03,12,23,18.60
2018,07,03,12,24,18.60
2018,07,03,12,25,18.50
2018,07,03,12,26,18.60
2018,07,03,12,27,18.70
2018,07,03,12,28,18.70
2018,07,03,12,29,18.70
2018,07,03,12,30,18.80
2018,07,03,12,31,18.80
2018,07,03,12,32,18.90
2018,07,03,12,33,19.00
2018,07,03,12,34,18.90
2018,07,03,12,35,18.80
2018,07,03,12,36,18.70
2018,07,03,12,37,18.80
2018,07,03,12,38,18.90
2018,07,03,12,39,19.00
2018,07,03,12,40,19.10
2018,07,03,12,41,19.10
2018,07,03,12,42,19.00
2018,07,03,12,43,19.00
2018,07,03,12,44,18.90
2018,07,03,12,45,19.00
2018,07,03,12,46,19.10
2018,07,03,12,47,19.10
2018,07,03,12,48,19.10
2018,07,03,12,49,19.20
2018,07,03,12,50,19.20
2018,07,03,12,51,19.30
2018,07,03,12,52,19.40
2018,07,03,12,53,19.50
2018,07,03,12,54,19.60
2018,07,03,12,55,19.60
2018,07,03,12,56,19.60
2018,07,03,12,57,19.60
2018,07,03,12,58,19.50
2018,07,03,12,59,19.40
2018,07,03,13,00,19.30
2018,07,03,13,01,19.20
2018,07,03,13,02,19.20
2018,07,03,13,03,19.20
2018,07,03,13,04,19.30
2018,07,03,13,05,19.50
2018,07,03,13,06,19.60
2018,07,03,13,07,19.40
2018,07,03,13,08,19.30
2018,07,03,13,09,19.20
2018,07,03,13,10,19.00
2018,07,03,13,11,18.90
2018,07,03,13,12,18.90
2018,07,03,13,13,18.90
2018,07,03,13,14,18.90
2018,07,03,13,15,19.00
2018,07,03,13,16,19.10
2018,07,03,13,17,19.10
2018,07,03,13,18,19.10
2018,07,03,13,19,19.10
2018,07,03,13,20,19.10
2018,07,03,13,21,19.10
2018,07,03,13,22,19.10
2018,07,03,13,23,19.00
2018,07,03,13,24,19.00
2018,07,03,13,25,18.90
2018,07,03,13,26,18.90
2018,07,03,13,27,19.00
2018,07,03,13,28,19.00
2018,07,03,13,29,19.10
2018,07,03,13,30,19.20
2018,07,03,13,31,19.30
2018,07,03,13,32,19.30
2018,07,03,13,33,19.20
2018,07,03,13,34,19.10
2018,07,03,13,35,19.10
2018,07,03,13,36,19.10
2018,07,03,13,37,19.10
2018,07,03,13,38,19.10
2018,07,03,13,39,19.00
2018,07,03,13,40,19.10
2018,07,03,13,41,19.10
2018,07,03,13,42,19.30
2018,07,03,13,43,19.30
2018,07,03,13,44,19.20
2018,07,03,13,45,19.30
2018,07,03,13,46,19.20
2018,07,03,13,47,19.20
2018,07,03,13,48,19.20
2018,07,03,13,49,19.30
2018,07,03,13,50,19.20
2018,07,03,13,51,19.20
2018,07,03,13,52,19.20
2018,07,03,13,53,19.30
2018,07,03,13,54,19.40
2018,07,03,13,55,19.30
2018,07,03,13,56,19.30
2018,07,03,13,57,19.40
2018,07,03,13,58,19.30
2018,07,03,13,59,19.30
2018,07,03,14,00,19.30
2018,07,03,14,01,19.30
2018,07,03,14,02,19.30
2018,07,03,14,03,19.30
2018,07,03,14,04,19.40
2018,07,03,14,05,19.40
2018,07,03,14,06,19.50
2018,07,03,14,07,19.40
2018,07,03,14,08,19.40
2018,07,03,14,09,19.40
2018,07,03,14,10,19.40
2018,07,03,14,11,19.30
2018,07,03,14,12,19.30
2018,07,03,14,13,19.20
2018,07,03,14,14,19.10
2018,07,03,14,15,19.10
2018,07,03,14,16,19.10
2018,07,03,14,17,19.20
2018,07,03,14,18,19.20
2018,07,03,14,19,19.20
2018,07,03,14,20,19.30
2018,07,03,14,21,19.40
2018,07,03,14,22,19.50
2018,07,03,14,23,19.60
2018,07,03,14,24,19.70
2018,07,03,14,25,19.60
2018,07,03,14,26,19.60
2018,07,03,14,27,19.50
2018,07,03,14,28,19.50
2018,07,03,14,29,19.50
2018,07,03,14,30,19.50
2018,07,03,14,31,19.60
2018,07,03,14,32,19.60
2018,07,03,14,33,19.60
2018,07,03,14,34,19.60
2018,07,03,14,35,19.70
2018,07,03,14,36,19.70
2018,07,03,14,37,19.70
2018,07,03,14,38,19.80
2018,07,03,14,39,19.90
2018,07,03,14,40,19.90
2018,07,03,14,41,19.90
2018,07,03,14,42,19.90
2018,07,03,14,43,19.90
2018,07,03,14,44,19.80
2018,07,03,14,45,19.80
2018,07,03,14,46,19.80
2018,07,03,14,47,19.70
2018,07,03,14,48,19.60
2018,07,03,14,49,19.60
2018,07,03,14,50,19.60
2018,07,03,14,51,19.60
2018,07,03,14,52,19.60
2018,07,03,14,53,19.60
2018,07,03,14,54,19.60
2018,07,03,14,55,19.60
2018,07,03,14,56,19.40
2018,07,03,14,57,19.30
2018,07,03,14,58,19.30
2018,07,03,14,59,19.30
2018,07,03,15,00,19.40
2018,07,03,15,01,19.50
2018,07,03,15,02,19.50
2018,07,03,15,03,19.60
2018,07,03,15,04,19.70
2018,07,03,15,05,19.80
2018,07,03,15,06,19.90
2018,07,03,15,07,20.00
2018,07,03,15,08,20.00
2018,07,03,15,09,20.10
2018,07,03,15,10,20.10
2018,07,03,15,11,20.10
2018,07,03,15,12,20.20
2018,07,03,15,13,20.20
2018,07,03,15,14,20.30
2018,07,03,15,15,20.30
2018,07,03,15,16,20.40
2018,07,03,15,17,20.40
2018,07,03,15,18,20.50
2018,07,03,15,19,20.50
2018,07,03,15,20,20.50
2018,07,03,15,21,20.30
2018,07,03,15,22,20.20
2018,07,03,15,23,20.00
2018,07,03,15,24,19.90
2018,07,03,15,25,19.80
2018,07,03,15,26,19.80
2018,07,03,15,27,19.70
2018,07,03,15,28,19.80
2018,07,03,15,29,19.90
2018,07,03,15,30,20.00
2018,07,03,15,31,20.10
2018,07,03,15,32,20.10
2018,07,03,15,33,20.10
2018,07,03,15,34,20.10
2018,07,03,15,35,20.20
2018,07,03,15,36,20.20
2018,07,03,15,37,20.20
2018,07,03,15,38,20.10
2018,07,03,15,39,20.10
2018,07,03,15,40,20.10
2018,07,03,15,41,20.10
2018,07,03,15,42,20.00
2018,07,03,15,43,19.90
2018,07,03,15,44,19.90
2018,07,03,15,45,19.90
2018,07,03,15,46,19.80
2018,07,03,15,47,19.80
2018,07,03,15,48,19.90
2018,07,03,15,49,19.90
2018,07,03,15,50,19.90
2018,07,03,15,51,19.90
2018,07,03,15,52,19.80
2018,07,03,15,53,19.80
2018,07,03,15,54,19.70
2018,07,03,15,55,19.80
2018,07,03,15,56,19.80
2018,07,03,15,57,19.90
2018,07,03,15,58,20.00
2018,07,03,15,59,20.10
2018,07,03,16,00,20.20
2018,07,03,16,01,20.20
2018,07,03,16,02,20.30
2018,07,03,16,03,20.40
2018,07,03,16,04,20.40
2018,07,03,16,05,20.50
2018,07,03,16,06,20.40
2018,07,03,16,07,20.40
2018,07,03,16,08,20.40
2018,07,03,16,09,20.30
2018,07,03,16,10,20.20
2018,07,03,16,11,20.20
2018,07,03,16,12,20.20
2018,07,03,16,13,20.10
2018,07,03,16,14,20.10
2018,07,03,16,15,20.10
2018,07,03,16,16,20.00
2018,07,03,16,17,20.00
2018,07,03,16,18,20.10
2018,07,03,16,19,20.10
2018,07,03,16,20,20.10
2018,07,03,16,21,20.20
2018,07,03,16,22,20.20
2018,07,03,16,23,20.20
2018,07,03,16,24,20.20
2018,07,03,16,25,20.10
2018,07,03,16,26,20.00
2018,07,03,16,27,19.90
2018,07,03,16,28,19.90
2018,07,03,16,29,19.90
2018,07,03,16,30,19.90
2018,07,03,16,31,19.90
2018,07,03,16,32,19.90
2018,07,03,16,33,19.90
2018,07,03,16,34,19.90
2018,07,03,16,35,19.90
2018,07,03,16,36,19.90
2018,07,03,16,37,19.90
2018,07,03,16,38,20.00
2018,07,03,16,39,20.10
2018,07,03,16,40,20.20
2018,07,03,16,41,20.20
2018,07,03,16,42,20.20
2018,07,03,16,43,20.30
2018,07,03,16,44,20.30
2018,07,03,16,45,20.30
2018,07,03,16,46,20.30
2018,07,03,16,47,20.20
2018,07,03,16,48,20.20
2018,07,03,16,49,20.30
2018,07,03,16,50,20.20
2018,07,03,16,51,20.20
2018,07,03,16,52,20.20
2018,07,03,16,53,20.20
2018,07,03,16,54,20.20
2018,07,03,16,55,20.20
2018,07,03,16,56,20.30
2018,07,03,16,57,20.30
2018,07,03,16,58,20.30
2018,07,03,16,59,20.20
2018,07,03,17,00,20.20
2018,07,03,17,01,20.20
2018,07,03,17,02,20.20
2018,07,03,17,03,20.20
2018,07,03,17,04,20.10
2018,07,03,17,05,20.00
2018,07,03,17,06,20.00
2018,07,03,17,07,19.90
2018,07,03,17,08,20.00
2018,07,03,17,09,20.00
2018,07,03,17,10,20.10
2018,07,03,17,11,20.10
2018,07,03,17,12,20.20
2018,07,03,17,13,20.20
2018,07,03,17,14,20.30
2018,07,03,17,15,20.30
2018,07,03,17,16,20.40
2018,07,03,17,17,20.40
2018,07,03,17,18,20.40
2018,07,03,17,19,20.40